Hays, KS

3:53 PM CST on December 11, 2017 (GMT -0600)
Hays Regional

Weather History for KHYS - April, 2014

Change the Weather History Date:

Thursday, April 3, 2014

  Actual Average Record
Temperature  
Mean Temperature 37 °F -  
Max Temperature 41 °F 57 °F 84 °F (2011)
Min Temperature 33 °F 35 °F 12 °F (2002)
Degree Days  
Heating Degree Days 28    
Moisture  
Dew Point 34 °F    
Average Humidity 87    
Maximum Humidity 93    
Minimum Humidity 81    
Precipitation  
Precipitation 0.06 in - - ()
Sea Level Pressure  
Sea Level Pressure 29.78 in    
Wind  
Wind Speed 18 mph (NNW)    
Max Wind Speed 25 mph    
Max Gust Speed 32 mph    
Visibility 5 miles    
Events      
Averages and records for this station are not official NWS values.
T = Trace of Precipitation, MM = Missing Value Source: NWS Daily Summary

Daily Weather History Graph

Daily Weather History Graph

Search for Another Location

Airport or City:

Trip Planner

Search our weather history database for the weather conditions in past years. The results will help you decide how hot, cold, wet, or windy it might be!

Date:

Astronomy

Apr. 03, 2014 Rise Set
Actual Time 7:18 AM CDT 8:02 PM CDT
Civil Twilight 6:51 AM CDT 8:29 PM CDT
Nautical Twilight 6:19 AM CDT 9:01 PM CDT
Astronomical Twilight 5:47 AM CDT 9:34 PM CDT
Moon 9:50 AM CDT (4/3) No Moon Set
Length of Visible Light 13h 37m
Length of Day
12h 44m
Waxing Crescent, 17% of the Moon is Illuminated
Apr 3
Waxing Crescent
Apr 7
First Quarter
Apr 15
Full
Apr 22
Last Quarter
Apr 29
New

Hourly Weather History & Observations

Time (CDT) Temp. Windchill Dew Point Humidity Pressure Visibility Wind Dir Wind Speed Gust Speed Precip Events Conditions
12:15 AM 41.0 °F 32.2 °F 35.6 °F 81% 29.69 in 9.0 mi NE 18.4 mph - N/A   Overcast
12:35 AM 41.0 °F 33.1 °F 35.6 °F 81% 29.70 in 7.0 mi NNE 15.0 mph - N/A   Overcast
12:55 AM 39.2 °F 30.5 °F 35.6 °F 87% 29.69 in 4.0 mi North 16.1 mph - N/A   Overcast
1:15 AM 39.2 °F 30.8 °F 35.6 °F 87% 29.68 in 4.0 mi North 15.0 mph - N/A   Overcast
1:35 AM 39.2 °F 29.8 °F 35.6 °F 87% 29.68 in 3.0 mi North 18.4 mph - N/A   Overcast
1:55 AM 39.2 °F 29.0 °F 35.6 °F 87% 29.68 in 1.8 mi North 21.9 mph - N/A   Overcast
2:15 AM 39.2 °F 28.7 °F 35.6 °F 87% 29.68 in 1.5 mi North 23.0 mph 26.5 mph N/A   Overcast
2:35 AM 39.2 °F 29.3 °F 35.6 °F 87% 29.68 in 2.5 mi North 20.7 mph - N/A   Overcast
2:55 AM 39.2 °F 29.0 °F 35.6 °F 87% 29.67 in 3.0 mi North 21.9 mph 28.8 mph N/A   Overcast
3:15 AM 39.2 °F 30.2 °F 35.6 °F 87% 29.67 in 3.0 mi North 17.3 mph 28.8 mph N/A   Overcast
3:35 AM 39.2 °F 30.2 °F 35.6 °F 87% 29.67 in 3.0 mi North 17.3 mph - N/A   Overcast
3:55 AM 39.2 °F 29.3 °F 35.6 °F 87% 29.66 in 4.0 mi North 20.7 mph - N/A   Overcast
4:15 AM 37.4 °F 27.5 °F 35.6 °F 93% 29.67 in 4.0 mi North 18.4 mph - N/A   Overcast
4:35 AM 37.4 °F 27.8 °F 35.6 °F 93% 29.67 in 4.0 mi North 17.3 mph 20.7 mph N/A   Overcast
4:55 AM 37.4 °F 27.8 °F 35.6 °F 93% 29.69 in 4.0 mi North 17.3 mph 25.3 mph N/A   Overcast
5:15 AM 37.4 °F 27.8 °F 35.6 °F 93% 29.69 in 3.0 mi North 17.3 mph - N/A   Overcast
5:35 AM 37.4 °F 28.2 °F 35.6 °F 93% 29.68 in 3.0 mi North 16.1 mph - N/A   Overcast
5:55 AM 37.4 °F 28.2 °F 35.6 °F 93% 29.68 in 3.0 mi North 16.1 mph - N/A   Overcast
6:15 AM 37.4 °F 29.8 °F 35.6 °F 93% 29.70 in 3.0 mi North 11.5 mph - N/A   Overcast
6:35 AM 37.4 °F 28.2 °F 35.6 °F 93% 29.69 in 4.0 mi North 16.1 mph - N/A   Overcast
6:55 AM 37.4 °F 27.8 °F 35.6 °F 93% 29.70 in 3.0 mi North 17.3 mph - N/A   Overcast
7:15 AM 37.4 °F 28.5 °F 35.6 °F 93% 29.70 in 3.0 mi North 15.0 mph 19.6 mph N/A   Overcast
7:35 AM 37.4 °F 29.3 °F 35.6 °F 93% 29.71 in 2.0 mi North 12.7 mph - N/A   Overcast
7:55 AM 37.4 °F 28.2 °F 35.6 °F 93% 29.71 in 2.5 mi North 16.1 mph - N/A   Overcast
8:15 AM 37.4 °F 28.9 °F 35.6 °F 93% 29.72 in 2.5 mi North 13.8 mph - N/A   Overcast
8:35 AM 39.2 °F 31.2 °F 35.6 °F 87% 29.72 in 3.0 mi North 13.8 mph - N/A   Overcast
8:55 AM 39.2 °F 30.5 °F 35.6 °F 87% 29.72 in 3.0 mi North 16.1 mph - N/A   Overcast
9:15 AM 39.2 °F 30.2 °F 35.6 °F 87% 29.72 in 3.0 mi NNW 17.3 mph - N/A   Overcast
9:35 AM 39.2 °F 31.2 °F 35.6 °F 87% 29.73 in 3.0 mi NNW 13.8 mph - N/A   Overcast
9:55 AM 39.2 °F 30.2 °F 35.6 °F 87% 29.73 in 5.0 mi North 17.3 mph - N/A   Overcast
10:15 AM 39.2 °F 30.5 °F 35.6 °F 87% 29.73 in 5.0 mi North 16.1 mph - N/A   Overcast
10:35 AM 39.2 °F 29.3 °F 35.6 °F 87% 29.74 in 10.0 mi North 20.7 mph - N/A   Overcast
10:55 AM 39.2 °F 29.8 °F 35.6 °F 87% 29.74 in 6.0 mi North 18.4 mph - N/A   Overcast
11:15 AM 39.2 °F 28.7 °F 35.6 °F 87% 29.72 in 9.0 mi North 23.0 mph - N/A   Overcast
11:35 AM 39.2 °F 29.3 °F 35.6 °F 87% 29.73 in 10.0 mi North 20.7 mph 26.5 mph N/A   Overcast
11:55 AM 39.2 °F 29.6 °F 35.6 °F 87% 29.73 in 10.0 mi North 19.6 mph 25.3 mph N/A   Overcast
12:15 PM 39.2 °F 29.6 °F 35.6 °F 87% 29.74 in 10.0 mi North 19.6 mph 26.5 mph N/A   Overcast
12:35 PM 39.2 °F 29.8 °F 35.6 °F 87% 29.74 in 10.0 mi North 18.4 mph 25.3 mph N/A   Overcast
12:55 PM 39.2 °F 29.3 °F 35.6 °F 87% 29.74 in 10.0 mi North 20.7 mph - N/A   Overcast
1:15 PM 39.2 °F 29.8 °F 35.6 °F 87% 29.75 in 6.0 mi North 18.4 mph - N/A   Overcast
1:35 PM 39.2 °F 29.3 °F 35.6 °F 87% 29.75 in 8.0 mi North 20.7 mph - N/A   Overcast
1:55 PM 39.2 °F 29.3 °F 35.6 °F 87% 29.75 in 4.0 mi North 20.7 mph - N/A   Overcast
2:15 PM 39.2 °F 29.0 °F 35.6 °F 87% 29.74 in 5.0 mi North 21.9 mph - N/A   Overcast
2:35 PM 39.2 °F 28.7 °F 35.6 °F 87% 29.76 in 3.0 mi North 23.0 mph - N/A   Overcast
2:55 PM 39.2 °F 28.3 °F 35.6 °F 87% 29.75 in 5.0 mi North 25.3 mph 28.8 mph N/A   Overcast
3:15 PM 39.2 °F 29.0 °F 35.6 °F 87% 29.76 in 10.0 mi North 21.9 mph 26.5 mph N/A   Overcast
3:35 PM 39.2 °F 29.0 °F 35.6 °F 87% 29.76 in 8.0 mi North 21.9 mph 26.5 mph N/A   Overcast
3:55 PM 39.2 °F 29.0 °F 33.8 °F 81% 29.77 in 7.0 mi North 21.9 mph 27.6 mph N/A   Overcast
4:15 PM 39.2 °F 29.0 °F 33.8 °F 81% 29.79 in 5.0 mi North 21.9 mph 27.6 mph N/A   Overcast
4:35 PM 39.2 °F 28.3 °F 33.8 °F 81% 29.79 in 4.0 mi North 25.3 mph 29.9 mph N/A   Overcast
4:55 PM 39.2 °F 29.8 °F 33.8 °F 81% 29.80 in 3.0 mi North 18.4 mph 32.2 mph N/A   Mostly Cloudy
5:15 PM 37.4 °F 27.8 °F 33.8 °F 87% 29.82 in 3.0 mi NNW 17.3 mph 23.0 mph N/A   Overcast
5:35 PM 37.4 °F 26.6 °F 33.8 °F 87% 29.85 in 3.0 mi NNW 21.9 mph 27.6 mph N/A   Overcast
5:55 PM 37.4 °F 27.8 °F 32.0 °F 81% 29.86 in 5.0 mi NNW 17.3 mph 27.6 mph N/A   Overcast
6:15 PM 37.4 °F 27.2 °F 32.0 °F 81% 29.88 in 5.0 mi NNW 19.6 mph 23.0 mph 0.01 in   Overcast
6:35 PM 37.4 °F 28.9 °F 32.0 °F 81% 29.90 in 6.0 mi NNW 13.8 mph - 0.01 in   Overcast
6:55 PM 35.6 °F 25.9 °F 32.0 °F 87% 29.91 in 7.0 mi NNW 16.1 mph - 0.02 in   Overcast
7:15 PM 33.8 °F 24.3 °F 30.2 °F 87% 29.93 in 3.0 mi NW 13.8 mph - 0.02 in   Overcast
7:35 PM 33.8 °F 24.8 °F 30.2 °F 87% 29.95 in 3.0 mi NW 12.7 mph - 0.02 in   Overcast
7:55 PM 35.6 °F 26.2 °F 30.2 °F 81% 29.95 in 8.0 mi NW 15.0 mph - 0.02 in   Overcast
8:15 PM 35.6 °F 26.2 °F 32.0 °F 87% 29.96 in 5.0 mi NW 15.0 mph - 0.01 in   Overcast
8:35 PM 35.6 °F 26.2 °F 30.2 °F 81% 29.97 in 6.0 mi NW 15.0 mph - 0.02 in   Overcast
8:55 PM 35.6 °F 27.1 °F 30.2 °F 81% 29.97 in 6.0 mi NW 12.7 mph - 0.02 in   Overcast
9:15 PM 35.6 °F 27.5 °F 32.0 °F 87% 29.97 in 7.0 mi NW 11.5 mph - N/A   Scattered Clouds
9:35 PM 35.6 °F 28.0 °F 32.0 °F 87% 29.98 in 10.0 mi NW 10.4 mph - N/A   Partly Cloudy
10:55 PM 35.6 °F 28.6 °F 30.2 °F 81% 30.00 in 10.0 mi WNW 9.2 mph - N/A   Clear
11:15 PM 33.8 °F 25.8 °F 30.2 °F 87% 30.00 in 8.0 mi WNW 10.4 mph - N/A   Clear
11:35 PM 33.8 °F 25.3 °F 28.4 °F 81% 30.01 in 10.0 mi WNW 11.5 mph - N/A   Clear
11:55 PM 33.8 °F 25.8 °F 28.4 °F 81% 30.02 in 10.0 mi WNW 10.4 mph - N/A   Clear